AUA27 LOWS-EDDN

Flight info

Callsign AUA27
Flight time 0h 30m
Altitude 28000
Route INROM2A INROM DCT SIMBA Y700 NENUM T161 AKINI Z109 UPALA UPALA1V
Aircraft A20N/M-SDE2E3FGHIRWXY/LB1

Departure

Time 2026-05-04 16:12
Airport Salzburg Airport (LOWS)

Arrival

Time 2026-05-04 16:42
Airport Nuremberg Airport (EDDN)
Time Latitude Longitude Altitude Speed Heading
2026-05-04 15:55 47.79177 13.00120 1420 ft 0 kts 101°
2026-05-04 16:04 47.79181 13.00092 1422 ft 3 kts 101°
2026-05-04 16:05 47.79185 13.00065 1420 ft 3 kts 101°
2026-05-04 16:05 47.79188 13.00038 1420 ft 3 kts 102°
2026-05-04 16:05 47.79198 12.99988 1422 ft 1 kts 114°
2026-05-04 16:06 47.79189 13.00003 1420 ft 0 kts 141°
2026-05-04 16:07 47.79182 13.00009 1420 ft 6 kts 147°
2026-05-04 16:07 47.78964 13.00177 1421 ft 13 kts 108°
2026-05-04 16:08 47.78950 13.00323 1419 ft 15 kts 99°
2026-05-04 16:08 47.78639 13.00565 1419 ft 19 kts 158°
2026-05-04 16:09 47.78374 13.00735 1420 ft 21 kts 156°
2026-05-04 16:09 47.78213 13.00856 1422 ft 0 kts 137°
2026-05-04 16:10 47.78190 13.01005 1420 ft 14 kts 70°
2026-05-04 16:11 47.78805 13.00726 1420 ft 119 kts 338°
2026-05-04 16:11 47.79746 13.00116 1634 ft 162 kts 335°
2026-05-04 16:12 47.83028 12.99157 3864 ft 183 kts 31°
2026-05-04 16:12 47.86557 13.03048 5255 ft 245 kts 32°
2026-05-04 16:13 47.90006 13.03735 6678 ft 262 kts 355°
2026-05-04 16:13 47.93891 13.03134 7982 ft 289 kts 352°
2026-05-04 16:14 47.97637 13.01106 9763 ft 292 kts 320°
2026-05-04 16:14 47.98660 12.99931 10301 ft 295 kts 318°
2026-05-04 16:15 48.00992 12.97073 10826 ft 327 kts 317°
2026-05-04 16:16 48.04739 12.92667 12062 ft 350 kts 320°
2026-05-04 16:16 48.10947 12.86508 14386 ft 368 kts 334°
2026-05-04 16:17 48.15719 12.83439 15807 ft 377 kts 334°
2026-05-04 16:18 48.23029 12.78760 17889 ft 389 kts 334°
2026-05-04 16:18 48.25527 12.77160 18525 ft 392 kts 334°
2026-05-04 16:19 48.33308 12.73031 20413 ft 402 kts 344°
2026-05-04 16:19 48.38786 12.71073 21648 ft 407 kts 344°
2026-05-04 16:20 48.47111 12.68151 23444 ft 416 kts 344°
2026-05-04 16:20 48.52762 12.66065 24410 ft 419 kts 338°
2026-05-04 16:21 48.59144 12.57673 25746 ft 412 kts 295°
2026-05-04 16:22 48.61527 12.49818 26619 ft 417 kts 292°
2026-05-04 16:22 48.65545 12.38066 27867 ft 423 kts 296°
2026-05-04 16:23 48.69846 12.26399 27937 ft 423 kts 296°
2026-05-04 16:24 48.75756 12.10925 25555 ft 438 kts 304°
2026-05-04 16:25 48.79545 12.03704 24173 ft 434 kts 306°
2026-05-04 16:26 48.86926 11.89509 21202 ft 424 kts 305°
2026-05-04 16:26 48.92338 11.79059 19017 ft 418 kts 304°
2026-05-04 16:27 48.95903 11.72126 17537 ft 414 kts 304°
2026-05-04 16:28 49.01184 11.61848 15268 ft 408 kts 304°
2026-05-04 16:28 49.06349 11.51801 13036 ft 388 kts 305°
2026-05-04 16:29 49.12679 11.39437 10064 ft 357 kts 305°
2026-05-04 16:30 49.19172 11.34631 7770 ft 367 kts
2026-05-04 16:31 49.23765 11.37690 6395 ft 365 kts 44°
2026-05-04 16:31 49.27801 11.46597 6009 ft 314 kts 56°
2026-05-04 16:32 49.31289 11.54098 5781 ft 271 kts 52°
2026-05-04 16:33 49.33503 11.58574 5270 ft 259 kts 50°
2026-05-04 16:33 49.36471 11.60967 5014 ft 233 kts
2026-05-04 16:34 49.39460 11.61103 5012 ft 212 kts 330°
2026-05-04 16:34 49.40447 11.59538 5027 ft 201 kts 301°
2026-05-04 16:35 49.42290 11.53912 5009 ft 192 kts 295°
2026-05-04 16:35 49.43847 11.48276 4999 ft 193 kts 292°
2026-05-04 16:36 49.44321 11.46340 4837 ft 192 kts 290°
2026-05-04 16:36 49.45183 11.42491 4546 ft 191 kts 289°
2026-05-04 16:37 49.45940 11.38662 4322 ft 188 kts 288°
2026-05-04 16:37 49.46293 11.36727 4235 ft 184 kts 287°
2026-05-04 16:37 49.46916 11.33043 4025 ft 178 kts 286°
2026-05-04 16:38 49.47471 11.29370 3620 ft 176 kts 284°
2026-05-04 16:39 49.48170 11.24060 2932 ft 165 kts 282°
2026-05-04 16:39 49.48563 11.20679 2500 ft 157 kts 281°
2026-05-04 16:40 49.48891 11.17602 2021 ft 136 kts 280°
2026-05-04 16:40 49.49187 11.14714 1551 ft 141 kts 281°
2026-05-04 16:41 49.49478 11.11727 1255 ft 139 kts 280°
2026-05-04 16:41 49.49882 11.07667 1026 ft 78 kts 279°
2026-05-04 16:42 49.49822 11.07042 1020 ft 7 kts 158°
2026-05-04 16:43 49.49810 11.07051 1020 ft 0 kts 155°
2026-05-04 16:43 49.49754 11.07101 1021 ft 10 kts 134°
2026-05-04 16:43 49.49735 11.07214 1022 ft 12 kts 94°
2026-05-04 16:44 49.49663 11.07761 1025 ft 10 kts 153°
2026-05-04 16:45 49.49557 11.07861 1025 ft 9 kts 168°
2026-05-04 16:46 49.49511 11.07853 1026 ft 0 kts 189°